User: anonymous   Login
Location: Acheville
(50.3840°N, 2.8827°E)
Time: 07:27:36
(UTC+00:00)
Language:

Cosmos 1908 - Orbit

View from above orbital plane
View from above orbital plane
View from above satellite
View from above satellite

Ground track
Ground track

The orbit data is extracted from the following two-line orbital elements,

1 18748U 88001A   22016.88978304  .00002519  00000-0  12981-3 0  9994
2 18748  82.4695 205.0005 0012180 213.5315 146.5148 15.15894137859014
Epoch (UTC): 16 January 2022 21:21:17
Eccentricity: 0.0012180
inclination: 82.4695°
perigee height: 510 km
apogee height: 526 km
right ascension of ascending node: 205.0005°
argument of perigee: 213.5315°
revolutions per day: 15.15894137
mean anomaly at epoch: 146.5148°
orbit number at epoch: 85901

The dashed part of the orbit path shows where the satellite is in the earth's shadow,  

DLR